TimeCST,TemperatureF,Dew PointF,Humidity,Sea Level PressureIn,VisibilityMPH,Wind Direction,Wind SpeedMPH,Gust SpeedMPH,PrecipitationIn,Events,Conditions,WindDirDegrees,DateUTC
12:42 AM,37.4,35.6,93,30.10,3.0,Calm,Calm,-,N/A,,Partly Cloudy,0,2013-12-30 06:42:00
12:53 AM,37.0,35.1,93,30.08,7.0,Calm,Calm,-,N/A,,Partly Cloudy,0,2013-12-30 06:53:00
1:53 AM,37.9,37.0,97,30.07,10.0,Calm,Calm,-,N/A,,Clear,0,2013-12-30 07:53:00
2:53 AM,36.0,35.1,97,30.07,4.0,Calm,Calm,-,N/A,,Clear,0,2013-12-30 08:53:00
3:02 AM,35.6,35.6,100,30.09,1.8,Calm,Calm,-,N/A,,Clear,0,2013-12-30 09:02:00
3:13 AM,35.6,35.6,100,30.09,1.5,Calm,Calm,-,N/A,,Partly Cloudy,0,2013-12-30 09:13:00
3:16 AM,35.6,35.6,100,30.10,3.0,Calm,Calm,-,N/A,,Clear,0,2013-12-30 09:16:00
3:40 AM,35.6,35.6,100,30.11,4.0,South,3.5,-,N/A,,Partly Cloudy,170,2013-12-30 09:40:00
3:43 AM,35.6,35.6,100,30.11,1.5,Calm,Calm,-,N/A,,Scattered Clouds,0,2013-12-30 09:43:00
3:51 AM,35.6,35.6,100,30.11,0.5,Calm,Calm,-,N/A,Fog,Fog,0,2013-12-30 09:51:00
3:53 AM,36.0,35.1,97,30.09,0.5,Calm,Calm,-,N/A,Fog,Fog,0,2013-12-30 09:53:00
4:14 AM,35.6,35.6,100,30.12,1.0,Calm,Calm,-,N/A,,Mist,0,2013-12-30 10:14:00
4:34 AM,37.4,35.6,93,30.12,0.8,Calm,Calm,-,N/A,,Mist,0,2013-12-30 10:34:00
4:53 AM,36.0,35.1,97,30.11,1.0,Calm,Calm,-,N/A,,Mist,0,2013-12-30 10:53:00
5:01 AM,35.6,33.8,93,30.13,3.0,Calm,Calm,-,N/A,,Mostly Cloudy,0,2013-12-30 11:01:00
5:15 AM,35.6,33.8,93,30.13,8.0,Calm,Calm,-,N/A,,Scattered Clouds,0,2013-12-30 11:15:00
5:53 AM,35.1,34.0,96,30.11,10.0,Calm,Calm,-,N/A,,Mostly Cloudy,0,2013-12-30 11:53:00
6:07 AM,35.6,33.8,93,30.13,10.0,Calm,Calm,-,N/A,,Scattered Clouds,0,2013-12-30 12:07:00
6:53 AM,36.0,34.0,93,30.13,10.0,Calm,Calm,-,N/A,,Clear,0,2013-12-30 12:53:00
7:12 AM,35.6,33.8,93,30.16,10.0,Calm,Calm,-,N/A,,Partly Cloudy,0,2013-12-30 13:12:00
7:53 AM,41.0,37.9,89,30.17,10.0,Calm,Calm,-,N/A,,Clear,0,2013-12-30 13:53:00
8:53 AM,42.1,41.0,96,30.18,10.0,Calm,Calm,-,N/A,,Clear,0,2013-12-30 14:53:00
9:53 AM,48.0,45.0,89,30.18,10.0,Calm,Calm,-,N/A,,Clear,0,2013-12-30 15:53:00
10:53 AM,52.0,46.9,83,30.18,10.0,Calm,Calm,-,N/A,,Clear,0,2013-12-30 16:53:00
11:53 AM,55.9,43.0,62,30.15,10.0,Calm,Calm,-,N/A,,Clear,0,2013-12-30 17:53:00
12:53 PM,57.0,46.0,67,30.14,10.0,Variable,3.5,-,N/A,,Clear,0,2013-12-30 18:53:00
1:53 PM,57.0,44.1,62,30.14,10.0,NW,3.5,-,N/A,,Clear,320,2013-12-30 19:53:00
2:53 PM,55.0,46.9,74,30.14,10.0,Calm,Calm,-,N/A,,Partly Cloudy,0,2013-12-30 20:53:00
3:53 PM,54.0,48.0,80,30.14,10.0,Calm,Calm,-,N/A,,Partly Cloudy,0,2013-12-30 21:53:00
4:53 PM,52.0,48.0,86,30.16,10.0,Calm,Calm,-,N/A,,Scattered Clouds,0,2013-12-30 22:53:00
5:53 PM,51.1,48.0,89,30.16,10.0,Calm,Calm,-,0.00,,Mostly Cloudy,0,2013-12-30 23:53:00
6:53 PM,51.1,46.9,86,30.18,10.0,Calm,Calm,-,N/A,,Clear,0,2013-12-31 00:53:00
7:53 PM,50.0,46.9,89,30.20,10.0,Calm,Calm,-,N/A,,Clear,0,2013-12-31 01:53:00
8:53 PM,50.0,46.9,89,30.22,10.0,Calm,Calm,-,N/A,,Clear,0,2013-12-31 02:53:00
9:53 PM,50.0,46.9,89,30.22,10.0,Variable,3.5,-,N/A,,Clear,0,2013-12-31 03:53:00
10:53 PM,50.0,46.9,89,30.21,10.0,Calm,Calm,-,N/A,,Clear,0,2013-12-31 04:53:00
11:53 PM,48.9,46.9,93,30.21,10.0,Calm,Calm,-,N/A,,Clear,0,2013-12-31 05:53:00